M I D A S
Marine Information and Data Acquisition System
Tripno 1297 of the Zeeleeuw from 2007-07-03 06:32:08 to 2007-07-03 15:22:59
Back to CruiseResearch ActivitiesStationsMapUnderway DataData graphs

EquipmentUnitsComment
TimeDGPSUTC
LatitudeDGPSDM.mWGS84
LongitudeDGPSDM.mWGS84
TemperatureSBE03/SBE38deg celciusITS90
ConductivitySBE21S/mITS90
SalinitySBE21 Practical Salinity Units
ChlorophylAChelsea fluorimeterg/lCalibrated in Aceton
Missing or incorrect values are displayed as -999
Sea surface data collected by the RV Zeeleeuw from 2007-07-03 06:30:31 to 2007-07-03 15:33:31
                                                                                    Next 1000 lines
Time Latitude Longitude Temperature Conductivity Salinity ChlorophylA
2007-07-03 06:30:41 51°13.597 2°56.092 -999 -999 -999 -999
2007-07-03 06:30:46 51°13.598 2°56.089 -999 -999 -999 -999
2007-07-03 06:30:51 51°13.599 2°56.086 -999 -999 -999 -999
2007-07-03 06:30:56 51°13.6 2°56.082 -999 -999 -999 -999
2007-07-03 06:31:01 51°13.602 2°56.077 -999 -999 -999 -999
2007-07-03 06:31:07 51°13.603 2°56.07 -999 -999 -999 -999
2007-07-03 06:31:13 51°13.606 2°56.063 -999 -999 -999 -999
2007-07-03 06:31:18 51°13.608 2°56.057 -999 -999 -999 -999
2007-07-03 06:31:24 51°13.61 2°56.048 -999 -999 -999 -999
2007-07-03 06:31:29 51°13.613 2°56.041 -999 -999 -999 -999
2007-07-03 06:31:34 51°13.615 2°56.032 -999 -999 -999 -999
2007-07-03 06:31:40 51°13.618 2°56.022 -999 -999 -999 -999
2007-07-03 06:31:45 51°13.621 2°56.013 -999 -999 -999 -999
2007-07-03 06:31:49 51°13.624 2°56.005 -999 -999 -999 -999
2007-07-03 06:31:54 51°13.627 2°55.996 -999 -999 -999 -999
2007-07-03 06:31:59 51°13.631 2°55.986 -999 -999 -999 -999
2007-07-03 06:32:05 51°13.635 2°55.974 -999 -999 -999 -999
2007-07-03 06:32:09 51°13.639 2°55.965 -999 -999 -999 -999
2007-07-03 06:32:14 51°13.643 2°55.955 -999 -999 -999 -999
2007-07-03 06:32:19 51°13.647 2°55.945 -999 -999 -999 -999
2007-07-03 06:32:25 51°13.652 2°55.933 -999 -999 -999 -999
2007-07-03 06:32:29 51°13.655 2°55.926 -999 -999 -999 -999
2007-07-03 06:32:34 51°13.658 2°55.917 -999 -999 -999 -999
2007-07-03 06:32:39 51°13.662 2°55.908 -999 -999 -999 -999
2007-07-03 06:32:44 51°13.665 2°55.9 -999 -999 -999 -999
2007-07-03 06:32:49 51°13.668 2°55.892 -999 -999 -999 -999
2007-07-03 06:32:54 51°13.671 2°55.885 -999 -999 -999 -999
2007-07-03 06:32:59 51°13.674 2°55.877 -999 -999 -999 -999
2007-07-03 06:33:04 51°13.676 2°55.87 -999 -999 -999 -999
2007-07-03 06:33:09 51°13.678 2°55.862 -999 -999 -999 -999
2007-07-03 06:33:13 51°13.679 2°55.857 -999 -999 -999 -999
2007-07-03 06:33:18 51°13.681 2°55.85 -999 -999 -999 -999
2007-07-03 06:33:23 51°13.682 2°55.844 -999 -999 -999 -999
2007-07-03 06:33:28 51°13.683 2°55.837 -999 -999 -999 -999
2007-07-03 06:33:33 51°13.685 2°55.831 -999 -999 -999 -999
2007-07-03 06:33:38 51°13.686 2°55.825 -999 -999 -999 -999
2007-07-03 06:33:42 51°13.686 2°55.82 -999 -999 -999 -999
2007-07-03 06:33:47 51°13.687 2°55.815 -999 -999 -999 -999
2007-07-03 06:33:52 51°13.687 2°55.809 -999 -999 -999 -999
2007-07-03 06:33:57 51°13.688 2°55.804 -999 -999 -999 -999
2007-07-03 06:34:02 51°13.688 2°55.799 -999 -999 -999 -999
2007-07-03 06:34:06 51°13.688 2°55.794 -999 -999 -999 -999
2007-07-03 06:34:11 51°13.688 2°55.79 -999 -999 -999 -999
2007-07-03 06:34:16 51°13.688 2°55.785 -999 -999 -999 -999
2007-07-03 06:34:21 51°13.688 2°55.781 -999 -999 -999 -999
2007-07-03 06:34:26 51°13.688 2°55.776 -999 -999 -999 -999
2007-07-03 06:34:31 51°13.688 2°55.772 -999 -999 -999 -999
2007-07-03 06:34:36 51°13.687 2°55.768 -999 -999 -999 -999
2007-07-03 06:34:41 51°13.687 2°55.764 -999 -999 -999 -999
2007-07-03 06:34:46 51°13.687 2°55.76 -999 -999 -999 -999
2007-07-03 06:34:51 51°13.687 2°55.756 -999 -999 -999 -999
2007-07-03 06:34:56 51°13.686 2°55.753 -999 -999 -999 -999
2007-07-03 06:35:01 51°13.686 2°55.749 -999 -999 -999 -999
2007-07-03 06:35:06 51°13.686 2°55.746 -999 -999 -999 -999
2007-07-03 06:35:11 51°13.685 2°55.743 -999 -999 -999 -999
2007-07-03 06:35:16 51°13.685 2°55.74 -999 -999 -999 -999
2007-07-03 06:35:21 51°13.684 2°55.737 -999 -999 -999 -999
2007-07-03 06:35:26 51°13.684 2°55.735 -999 -999 -999 -999
2007-07-03 06:35:31 51°13.684 2°55.732 -999 -999 -999 -999
2007-07-03 06:35:36 51°13.684 2°55.73 -999 -999 -999 -999
2007-07-03 06:35:41 51°13.684 2°55.729 -999 -999 -999 -999
2007-07-03 06:35:46 51°13.684 2°55.729 -999 -999 -999 -999
2007-07-03 06:35:51 51°13.686 2°55.729 -999 -999 -999 -999
2007-07-03 06:35:56 51°13.687 2°55.73 -999 -999 -999 -999
2007-07-03 06:36:01 51°13.689 2°55.731 -999 -999 -999 -999
2007-07-03 06:36:06 51°13.692 2°55.732 -999 -999 -999 -999
2007-07-03 06:36:10 51°13.695 2°55.733 -999 -999 -999 -999
2007-07-03 06:36:16 51°13.7 2°55.734 -999 -999 -999 -999
2007-07-03 06:36:21 51°13.705 2°55.733 -999 -999 -999 -999
2007-07-03 06:36:26 51°13.71 2°55.731 -999 -999 -999 -999
2007-07-03 06:36:31 51°13.716 2°55.727 -999 -999 -999 -999
2007-07-03 06:36:36 51°13.722 2°55.722 -999 -999 -999 -999
2007-07-03 06:36:41 51°13.729 2°55.717 -999 -999 -999 -999
2007-07-03 06:36:46 51°13.736 2°55.711 -999 -999 -999 -999
2007-07-03 06:36:51 51°13.743 2°55.705 -999 -999 -999 -999
2007-07-03 06:36:56 51°13.751 2°55.698 -999 -999 -999 -999
2007-07-03 06:37:01 51°13.759 2°55.692 -999 -999 -999 -999
2007-07-03 06:37:06 51°13.767 2°55.685 -999 -999 -999 -999
2007-07-03 06:37:11 51°13.776 2°55.677 -999 -999 -999 -999
2007-07-03 06:37:16 51°13.785 2°55.671 -999 -999 -999 -999
2007-07-03 06:37:21 51°13.794 2°55.663 -999 -999 -999 -999
2007-07-03 06:37:26 51°13.803 2°55.656 -999 -999 -999 -999
2007-07-03 06:37:31 51°13.812 2°55.649 -999 -999 -999 -999
2007-07-03 06:37:36 51°13.822 2°55.642 -999 -999 -999 -999
2007-07-03 06:37:41 51°13.832 2°55.635 -999 -999 -999 -999
2007-07-03 06:37:46 51°13.841 2°55.628 -999 -999 -999 -999
2007-07-03 06:37:51 51°13.851 2°55.621 -999 -999 -999 -999
2007-07-03 06:37:56 51°13.861 2°55.614 -999 -999 -999 -999
2007-07-03 06:38:01 51°13.872 2°55.607 -999 -999 -999 -999
2007-07-03 06:38:06 51°13.882 2°55.6 -999 -999 -999 -999
2007-07-03 06:38:10 51°13.89 2°55.594 -999 -999 -999 -999
2007-07-03 06:38:16 51°13.902 2°55.585 -999 -999 -999 -999
2007-07-03 06:38:21 51°13.913 2°55.577 -999 -999 -999 -999
2007-07-03 06:38:26 51°13.923 2°55.57 -999 -999 -999 -999
2007-07-03 06:38:31 51°13.934 2°55.562 -999 -999 -999 -999
2007-07-03 06:38:36 51°13.944 2°55.555 -999 -999 -999 -999
2007-07-03 06:38:41 51°13.955 2°55.547 -999 -999 -999 -999
2007-07-03 06:38:46 51°13.966 2°55.539 -999 -999 -999 -999
2007-07-03 06:38:51 51°13.976 2°55.532 -999 -999 -999 -999
2007-07-03 06:38:56 51°13.987 2°55.524 -999 -999 -999 -999
2007-07-03 06:39:01 51°13.998 2°55.516 -999 -999 -999 -999
2007-07-03 06:39:06 51°14.009 2°55.508 -999 -999 -999 -999
2007-07-03 06:39:11 51°14.02 2°55.499 -999 -999 -999 -999
2007-07-03 06:39:16 51°14.032 2°55.491 -999 -999 -999 -999
2007-07-03 06:39:21 51°14.043 2°55.482 -999 -999 -999 -999
2007-07-03 06:39:26 51°14.055 2°55.474 -999 -999 -999 -999
2007-07-03 06:39:31 51°14.067 2°55.465 -999 -999 -999 -999
2007-07-03 06:39:36 51°14.078 2°55.456 -999 -999 -999 -999
2007-07-03 06:39:41 51°14.09 2°55.447 -999 -999 -999 -999
2007-07-03 06:39:46 51°14.102 2°55.437 -999 -999 -999 -999
2007-07-03 06:39:51 51°14.114 2°55.428 -999 -999 -999 -999
2007-07-03 06:39:56 51°14.126 2°55.418 -999 -999 -999 -999
2007-07-03 06:40:01 51°14.138 2°55.408 -999 -999 -999 -999
2007-07-03 06:40:06 51°14.151 2°55.397 -999 -999 -999 -999
2007-07-03 06:40:11 51°14.163 2°55.386 -999 -999 -999 -999
2007-07-03 06:40:16 51°14.175 2°55.374 -999 -999 -999 -999
2007-07-03 06:40:21 51°14.187 2°55.362 -999 -999 -999 -999
2007-07-03 06:40:26 51°14.199 2°55.348 -999 -999 -999 -999
2007-07-03 06:40:31 51°14.211 2°55.334 -999 -999 -999 -999
2007-07-03 06:40:36 51°14.223 2°55.32 -999 -999 -999 -999
2007-07-03 06:40:41 51°14.235 2°55.303 -999 -999 -999 -999
2007-07-03 06:40:46 51°14.246 2°55.287 -999 -999 -999 -999
2007-07-03 06:40:51 51°14.257 2°55.269 -999 -999 -999 -999
2007-07-03 06:40:56 51°14.268 2°55.251 -999 -999 -999 -999
2007-07-03 06:41:01 51°14.279 2°55.233 -999 -999 -999 -999
2007-07-03 06:41:06 51°14.289 2°55.214 -999 -999 -999 -999
2007-07-03 06:41:11 51°14.3 2°55.196 -999 -999 -999 -999
2007-07-03 06:41:16 51°14.311 2°55.177 -999 -999 -999 -999
2007-07-03 06:41:21 51°14.321 2°55.156 -999 -999 -999 -999
2007-07-03 06:41:26 51°14.331 2°55.136 -999 -999 -999 -999
2007-07-03 06:41:31 51°14.34 2°55.115 -999 -999 -999 -999
2007-07-03 06:41:36 51°14.35 2°55.094 -999 -999 -999 -999
2007-07-03 06:41:41 51°14.36 2°55.072 -999 -999 -999 -999
2007-07-03 06:41:46 51°14.369 2°55.051 -999 -999 -999 -999
2007-07-03 06:41:51 51°14.378 2°55.028 -999 -999 -999 -999
2007-07-03 06:41:56 51°14.386 2°55.003 -999 -999 -999 -999
2007-07-03 06:42:01 51°14.392 2°54.978 -999 -999 -999 -999
2007-07-03 06:42:06 51°14.398 2°54.951 -999 -999 -999 -999
2007-07-03 06:42:11 51°14.403 2°54.924 -999 -999 -999 -999
2007-07-03 06:42:16 51°14.407 2°54.896 -999 -999 -999 -999
2007-07-03 06:42:21 51°14.411 2°54.868 -999 -999 -999 -999
2007-07-03 06:42:26 51°14.415 2°54.839 -999 -999 -999 -999
2007-07-03 06:42:31 51°14.418 2°54.81 -999 -999 -999 -999
2007-07-03 06:42:36 51°14.421 2°54.781 -999 -999 -999 -999
2007-07-03 06:42:41 51°14.423 2°54.752 -999 -999 -999 -999
2007-07-03 06:42:46 51°14.424 2°54.722 -999 -999 -999 -999
2007-07-03 06:42:51 51°14.425 2°54.692 -999 -999 -999 -999
2007-07-03 06:42:56 51°14.426 2°54.663 -999 -999 -999 -999
2007-07-03 06:43:01 51°14.425 2°54.633 -999 -999 -999 -999
2007-07-03 06:43:06 51°14.424 2°54.603 -999 -999 -999 -999
2007-07-03 06:43:11 51°14.421 2°54.574 -999 -999 -999 -999
2007-07-03 06:43:16 51°14.418 2°54.544 -999 -999 -999 -999
2007-07-03 06:43:21 51°14.415 2°54.515 -999 -999 -999 -999
2007-07-03 06:43:26 51°14.41 2°54.486 -999 -999 -999 -999
2007-07-03 06:43:30 51°14.405 2°54.464 -999 -999 -999 -999
2007-07-03 06:43:36 51°14.397 2°54.431 -999 -999 -999 -999
2007-07-03 06:43:41 51°14.389 2°54.405 -999 -999 -999 -999
2007-07-03 06:43:46 51°14.382 2°54.378 -999 -999 -999 -999
2007-07-03 06:43:51 51°14.373 2°54.352 -999 -999 -999 -999
2007-07-03 06:43:56 51°14.364 2°54.326 -999 -999 -999 -999
2007-07-03 06:44:01 51°14.355 2°54.3 -999 -999 -999 -999
2007-07-03 06:44:06 51°14.346 2°54.275 -999 -999 -999 -999
2007-07-03 06:44:11 51°14.337 2°54.249 -999 -999 -999 -999
2007-07-03 06:44:16 51°14.327 2°54.224 -999 -999 -999 -999
2007-07-03 06:44:21 51°14.318 2°54.198 -999 -999 -999 -999
2007-07-03 06:44:26 51°14.308 2°54.173 -999 -999 -999 -999
2007-07-03 06:44:31 51°14.299 2°54.147 -999 -999 -999 -999
2007-07-03 06:44:36 51°14.29 2°54.121 -999 -999 -999 -999
2007-07-03 06:44:41 51°14.281 2°54.095 -999 -999 -999 -999
2007-07-03 06:44:46 51°14.271 2°54.069 -999 -999 -999 -999
2007-07-03 06:44:51 51°14.262 2°54.043 -999 -999 -999 -999
2007-07-03 06:44:56 51°14.252 2°54.018 -999 -999 -999 -999
2007-07-03 06:45:01 51°14.243 2°53.991 -999 -999 -999 -999
2007-07-03 06:45:06 51°14.234 2°53.965 -999 -999 -999 -999
2007-07-03 06:45:11 51°14.225 2°53.939 -999 -999 -999 -999
2007-07-03 06:45:16 51°14.215 2°53.913 -999 -999 -999 -999
2007-07-03 06:45:21 51°14.206 2°53.887 -999 -999 -999 -999
2007-07-03 06:45:26 51°14.197 2°53.861 -999 -999 -999 -999
2007-07-03 06:45:31 51°14.188 2°53.834 -999 -999 -999 -999
2007-07-03 06:45:36 51°14.178 2°53.808 -999 -999 -999 -999
2007-07-03 06:45:41 51°14.169 2°53.781 -999 -999 -999 -999
2007-07-03 06:45:46 51°14.159 2°53.756 -999 -999 -999 -999
2007-07-03 06:45:51 51°14.149 2°53.73 -999 -999 -999 -999
2007-07-03 06:45:56 51°14.139 2°53.704 -999 -999 -999 -999
2007-07-03 06:46:01 51°14.13 2°53.678 -999 -999 -999 -999
2007-07-03 06:46:06 51°14.12 2°53.652 -999 -999 -999 -999
2007-07-03 06:46:11 51°14.111 2°53.626 -999 -999 -999 -999
2007-07-03 06:46:16 51°14.102 2°53.599 -999 -999 -999 -999
2007-07-03 06:46:21 51°14.092 2°53.573 -999 -999 -999 -999
2007-07-03 06:46:26 51°14.083 2°53.547 -999 -999 -999 -999
2007-07-03 06:46:31 51°14.074 2°53.52 -999 -999 -999 -999
2007-07-03 06:46:36 51°14.065 2°53.493 -999 -999 -999 -999
2007-07-03 06:46:41 51°14.056 2°53.467 -999 -999 -999 -999
2007-07-03 06:46:46 51°14.047 2°53.44 -999 -999 -999 -999
2007-07-03 06:46:51 51°14.038 2°53.414 -999 -999 -999 -999
2007-07-03 06:46:56 51°14.029 2°53.387 -999 -999 -999 -999
2007-07-03 06:47:01 51°14.02 2°53.361 -999 -999 -999 -999
2007-07-03 06:47:06 51°14.01 2°53.334 -999 -999 -999 -999
2007-07-03 06:47:11 51°14.001 2°53.308 -999 -999 -999 -999
2007-07-03 06:47:16 51°13.991 2°53.282 -999 -999 -999 -999
2007-07-03 06:47:21 51°13.981 2°53.256 -999 -999 -999 -999
2007-07-03 06:47:26 51°13.972 2°53.23 -999 -999 -999 -999
2007-07-03 06:47:30 51°13.964 2°53.21 -999 -999 -999 -999
2007-07-03 06:47:36 51°13.953 2°53.178 -999 -999 -999 -999
2007-07-03 06:47:41 51°13.943 2°53.152 -999 -999 -999 -999
2007-07-03 06:47:46 51°13.935 2°53.125 -999 -999 -999 -999
2007-07-03 06:47:51 51°13.925 2°53.099 -999 -999 -999 -999
2007-07-03 06:47:56 51°13.916 2°53.072 -999 -999 -999 -999
2007-07-03 06:48:01 51°13.907 2°53.046 -999 -999 -999 -999
2007-07-03 06:48:06 51°13.898 2°53.019 -999 -999 -999 -999
2007-07-03 06:48:11 51°13.889 2°52.993 -999 -999 -999 -999
2007-07-03 06:48:16 51°13.88 2°52.966 -999 -999 -999 -999
2007-07-03 06:48:21 51°13.871 2°52.94 -999 -999 -999 -999
2007-07-03 06:48:26 51°13.862 2°52.914 -999 -999 -999 -999
2007-07-03 06:48:31 51°13.852 2°52.887 -999 -999 -999 -999
2007-07-03 06:48:36 51°13.843 2°52.861 -999 -999 -999 -999
2007-07-03 06:48:41 51°13.834 2°52.835 -999 -999 -999 -999
2007-07-03 06:48:46 51°13.824 2°52.809 -999 -999 -999 -999
2007-07-03 06:48:51 51°13.815 2°52.783 -999 -999 -999 -999
2007-07-03 06:48:56 51°13.805 2°52.757 -999 -999 -999 -999
2007-07-03 06:49:01 51°13.795 2°52.731 -999 -999 -999 -999
2007-07-03 06:49:06 51°13.785 2°52.706 -999 -999 -999 -999
2007-07-03 06:49:11 51°13.776 2°52.679 -999 -999 -999 -999
2007-07-03 06:49:16 51°13.767 2°52.653 -999 -999 -999 -999
2007-07-03 06:49:21 51°13.757 2°52.627 -999 -999 -999 -999
2007-07-03 06:49:26 51°13.748 2°52.601 -999 -999 -999 -999
2007-07-03 06:49:30 51°13.741 2°52.58 -999 -999 -999 -999
2007-07-03 06:49:36 51°13.73 2°52.548 -999 -999 -999 -999
2007-07-03 06:49:41 51°13.72 2°52.523 -999 -999 -999 -999
2007-07-03 06:49:46 51°13.711 2°52.497 -999 -999 -999 -999
2007-07-03 06:49:50 51°13.703 2°52.476 -999 -999 -999 -999
2007-07-03 06:49:56 51°13.692 2°52.444 -999 -999 -999 -999
2007-07-03 06:50:01 51°13.682 2°52.419 -999 -999 -999 -999
2007-07-03 06:50:06 51°13.673 2°52.392 -999 -999 -999 -999
2007-07-03 06:50:11 51°13.664 2°52.366 -999 -999 -999 -999
2007-07-03 06:50:16 51°13.654 2°52.34 -999 -999 -999 -999
2007-07-03 06:50:21 51°13.645 2°52.314 -999 -999 -999 -999
2007-07-03 06:50:26 51°13.636 2°52.288 -999 -999 -999 -999
2007-07-03 06:50:31 51°13.626 2°52.262 -999 -999 -999 -999
2007-07-03 06:50:36 51°13.617 2°52.236 -999 -999 -999 -999
2007-07-03 06:50:41 51°13.608 2°52.209 -999 -999 -999 -999
2007-07-03 06:50:46 51°13.598 2°52.183 -999 -999 -999 -999
2007-07-03 06:50:51 51°13.59 2°52.157 -999 -999 -999 -999
2007-07-03 06:50:56 51°13.58 2°52.131 -999 -999 -999 -999
2007-07-03 06:51:01 51°13.571 2°52.104 -999 -999 -999 -999
2007-07-03 06:51:06 51°13.562 2°52.078 -999 -999 -999 -999
2007-07-03 06:51:11 51°13.553 2°52.052 -999 -999 -999 -999
2007-07-03 06:51:16 51°13.543 2°52.026 -999 -999 -999 -999
2007-07-03 06:51:21 51°13.534 2°52 -999 -999 -999 -999
2007-07-03 06:51:26 51°13.524 2°51.974 -999 -999 -999 -999
2007-07-03 06:51:31 51°13.515 2°51.948 -999 -999 -999 -999
2007-07-03 06:51:36 51°13.506 2°51.922 -999 -999 -999 -999
2007-07-03 06:51:41 51°13.496 2°51.896 -999 -999 -999 -999
2007-07-03 06:51:46 51°13.487 2°51.869 -999 -999 -999 -999
2007-07-03 06:51:51 51°13.478 2°51.843 -999 -999 -999 -999
2007-07-03 06:51:56 51°13.469 2°51.817 -999 -999 -999 -999
2007-07-03 06:52:01 51°13.459 2°51.791 -999 -999 -999 -999
2007-07-03 06:52:06 51°13.45 2°51.765 -999 -999 -999 -999
2007-07-03 06:52:11 51°13.441 2°51.738 -999 -999 -999 -999
2007-07-03 06:52:16 51°13.431 2°51.712 -999 -999 -999 -999
2007-07-03 06:52:21 51°13.422 2°51.686 -999 -999 -999 -999
2007-07-03 06:52:26 51°13.413 2°51.66 -999 -999 -999 -999
2007-07-03 06:52:31 51°13.404 2°51.633 -999 -999 -999 -999
2007-07-03 06:52:36 51°13.394 2°51.607 -999 -999 -999 -999
2007-07-03 06:52:41 51°13.385 2°51.581 -999 -999 -999 -999
2007-07-03 06:52:46 51°13.375 2°51.555 -999 -999 -999 -999
2007-07-03 06:52:51 51°13.366 2°51.529 -999 -999 -999 -999
2007-07-03 06:52:56 51°13.357 2°51.503 -999 -999 -999 -999
2007-07-03 06:53:01 51°13.348 2°51.477 -999 -999 -999 -999
2007-07-03 06:53:06 51°13.339 2°51.45 -999 -999 -999 -999
2007-07-03 06:53:11 51°13.329 2°51.424 -999 -999 -999 -999
2007-07-03 06:53:16 51°13.32 2°51.398 -999 -999 -999 -999
2007-07-03 06:53:21 51°13.31 2°51.372 -999 -999 -999 -999
2007-07-03 06:53:26 51°13.301 2°51.347 -999 -999 -999 -999
2007-07-03 06:53:31 51°13.291 2°51.321 -999 -999 -999 -999
2007-07-03 06:53:36 51°13.281 2°51.296 -999 -999 -999 -999
2007-07-03 06:53:41 51°13.271 2°51.271 -999 -999 -999 -999
2007-07-03 06:53:46 51°13.261 2°51.245 -999 -999 -999 -999
2007-07-03 06:53:51 51°13.251 2°51.22 -999 -999 -999 -999
2007-07-03 06:53:56 51°13.241 2°51.194 -999 -999 -999 -999
2007-07-03 06:54:01 51°13.23 2°51.17 -999 -999 -999 -999
2007-07-03 06:54:06 51°13.22 2°51.144 -999 -999 -999 -999
2007-07-03 06:54:11 51°13.21 2°51.119 -999 -999 -999 -999
2007-07-03 06:54:16 51°13.2 2°51.094 -999 -999 -999 -999
2007-07-03 06:54:21 51°13.19 2°51.069 -999 -999 -999 -999
2007-07-03 06:54:26 51°13.18 2°51.044 -999 -999 -999 -999
2007-07-03 06:54:31 51°13.17 2°51.018 -999 -999 -999 -999
2007-07-03 06:54:36 51°13.161 2°50.993 -999 -999 -999 -999
2007-07-03 06:54:41 51°13.151 2°50.967 -999 -999 -999 -999
2007-07-03 06:54:46 51°13.141 2°50.942 -999 -999 -999 -999
2007-07-03 06:54:51 51°13.131 2°50.917 -999 -999 -999 -999
2007-07-03 06:54:56 51°13.121 2°50.891 -999 -999 -999 -999
2007-07-03 06:55:01 51°13.111 2°50.866 -999 -999 -999 -999
2007-07-03 06:55:06 51°13.101 2°50.84 -999 -999 -999 -999
2007-07-03 06:55:11 51°13.091 2°50.815 -999 -999 -999 -999
2007-07-03 06:55:16 51°13.082 2°50.789 -999 -999 -999 -999
2007-07-03 06:55:21 51°13.072 2°50.764 -999 -999 -999 -999
2007-07-03 06:55:26 51°13.062 2°50.738 -999 -999 -999 -999
2007-07-03 06:55:31 51°13.052 2°50.713 -999 -999 -999 -999
2007-07-03 06:55:36 51°13.042 2°50.688 -999 -999 -999 -999
2007-07-03 06:55:41 51°13.032 2°50.663 -999 -999 -999 -999
2007-07-03 06:55:46 51°13.021 2°50.638 -999 -999 -999 -999
2007-07-03 06:55:51 51°13.011 2°50.613 -999 -999 -999 -999
2007-07-03 06:55:56 51°13.001 2°50.588 -999 -999 -999 -999
2007-07-03 06:56:01 51°12.991 2°50.562 -999 -999 -999 -999
2007-07-03 06:56:06 51°12.981 2°50.537 -999 -999 -999 -999
2007-07-03 06:56:11 51°12.971 2°50.512 -999 -999 -999 -999
2007-07-03 06:56:16 51°12.962 2°50.486 -999 -999 -999 -999
2007-07-03 06:56:21 51°12.952 2°50.46 -999 -999 -999 -999
2007-07-03 06:56:26 51°12.942 2°50.434 -999 -999 -999 -999
2007-07-03 06:56:31 51°12.932 2°50.409 -999 -999 -999 -999
2007-07-03 06:56:36 51°12.922 2°50.384 -999 -999 -999 -999
2007-07-03 06:56:41 51°12.912 2°50.358 -999 -999 -999 -999
2007-07-03 06:56:46 51°12.902 2°50.333 -999 -999 -999 -999
2007-07-03 06:56:51 51°12.892 2°50.307 -999 -999 -999 -999
2007-07-03 06:56:56 51°12.882 2°50.282 -999 -999 -999 -999
2007-07-03 06:57:01 51°12.872 2°50.256 -999 -999 -999 -999
2007-07-03 06:57:06 51°12.862 2°50.231 -999 -999 -999 -999
2007-07-03 06:57:11 51°12.852 2°50.206 -999 -999 -999 -999
2007-07-03 06:57:16 51°12.843 2°50.181 -999 -999 -999 -999
2007-07-03 06:57:21 51°12.833 2°50.155 -999 -999 -999 -999
2007-07-03 06:57:26 51°12.822 2°50.13 -999 -999 -999 -999
2007-07-03 06:57:31 51°12.812 2°50.105 -999 -999 -999 -999
2007-07-03 06:57:36 51°12.802 2°50.08 -999 -999 -999 -999
2007-07-03 06:57:41 51°12.792 2°50.055 -999 -999 -999 -999
2007-07-03 06:57:46 51°12.782 2°50.029 -999 -999 -999 -999
2007-07-03 06:57:51 51°12.772 2°50.004 -999 -999 -999 -999
2007-07-03 06:57:56 51°12.763 2°49.978 -999 -999 -999 -999
2007-07-03 06:58:01 51°12.753 2°49.953 -999 -999 -999 -999
2007-07-03 06:58:06 51°12.743 2°49.927 -999 -999 -999 -999
2007-07-03 06:58:11 51°12.733 2°49.902 -999 -999 -999 -999
2007-07-03 06:58:16 51°12.723 2°49.877 -999 -999 -999 -999
2007-07-03 06:58:21 51°12.713 2°49.852 -999 -999 -999 -999
2007-07-03 06:58:26 51°12.703 2°49.827 -999 -999 -999 -999
2007-07-03 06:58:31 51°12.692 2°49.801 -999 -999 -999 -999
2007-07-03 06:58:36 51°12.682 2°49.776 -999 -999 -999 -999
2007-07-03 06:58:41 51°12.672 2°49.751 -999 -999 -999 -999
2007-07-03 06:58:46 51°12.663 2°49.725 -999 -999 -999 -999
2007-07-03 06:58:51 51°12.653 2°49.7 -999 -999 -999 -999
2007-07-03 06:58:56 51°12.643 2°49.674 -999 -999 -999 -999
2007-07-03 06:59:01 51°12.634 2°49.648 -999 -999 -999 -999
2007-07-03 06:59:06 51°12.625 2°49.622 -999 -999 -999 -999
2007-07-03 06:59:11 51°12.615 2°49.596 -999 -999 -999 -999
2007-07-03 06:59:16 51°12.606 2°49.569 -999 -999 -999 -999
2007-07-03 06:59:21 51°12.597 2°49.543 -999 -999 -999 -999
2007-07-03 06:59:26 51°12.587 2°49.518 -999 -999 -999 -999
2007-07-03 06:59:31 51°12.578 2°49.491 -999 -999 -999 -999
2007-07-03 06:59:36 51°12.569 2°49.465 -999 -999 -999 -999
2007-07-03 06:59:41 51°12.56 2°49.439 -999 -999 -999 -999
2007-07-03 06:59:46 51°12.551 2°49.413 -999 -999 -999 -999
2007-07-03 06:59:51 51°12.541 2°49.387 -999 -999 -999 -999
2007-07-03 06:59:56 51°12.532 2°49.361 -999 -999 -999 -999
2007-07-03 07:00:01 51°12.522 2°49.335 -999 -999 -999 -999
2007-07-03 07:00:06 51°12.513 2°49.309 -999 -999 -999 -999
2007-07-03 07:00:11 51°12.504 2°49.284 -999 -999 -999 -999
2007-07-03 07:00:16 51°12.494 2°49.258 -999 -999 -999 -999
2007-07-03 07:00:21 51°12.484 2°49.232 -999 -999 -999 -999
2007-07-03 07:00:26 51°12.475 2°49.207 -999 -999 -999 -999
2007-07-03 07:00:31 51°12.465 2°49.181 -999 -999 -999 -999
2007-07-03 07:00:36 51°12.456 2°49.155 -999 -999 -999 -999
2007-07-03 07:00:41 51°12.446 2°49.129 -999 -999 -999 -999
2007-07-03 07:00:46 51°12.437 2°49.103 -999 -999 -999 -999
2007-07-03 07:00:51 51°12.428 2°49.077 -999 -999 -999 -999
2007-07-03 07:00:56 51°12.419 2°49.051 -999 -999 -999 -999
2007-07-03 07:01:01 51°12.409 2°49.026 -999 -999 -999 -999
2007-07-03 07:01:06 51°12.4 2°48.999 -999 -999 -999 -999
2007-07-03 07:01:11 51°12.391 2°48.974 -999 -999 -999 -999
2007-07-03 07:01:16 51°12.382 2°48.948 -999 -999 -999 -999
2007-07-03 07:01:21 51°12.372 2°48.922 -999 -999 -999 -999
2007-07-03 07:01:26 51°12.363 2°48.896 -999 -999 -999 -999
2007-07-03 07:01:31 51°12.354 2°48.87 -999 -999 -999 -999
2007-07-03 07:01:36 51°12.344 2°48.844 -999 -999 -999 -999
2007-07-03 07:01:41 51°12.335 2°48.818 -999 -999 -999 -999
2007-07-03 07:01:46 51°12.326 2°48.791 -999 -999 -999 -999
2007-07-03 07:01:51 51°12.317 2°48.765 -999 -999 -999 -999
2007-07-03 07:01:56 51°12.308 2°48.739 -999 -999 -999 -999
2007-07-03 07:02:01 51°12.298 2°48.713 -999 -999 -999 -999
2007-07-03 07:02:06 51°12.289 2°48.687 -999 -999 -999 -999
2007-07-03 07:02:11 51°12.279 2°48.662 -999 -999 -999 -999
2007-07-03 07:02:16 51°12.27 2°48.636 -999 -999 -999 -999
2007-07-03 07:02:21 51°12.261 2°48.61 -999 -999 -999 -999
2007-07-03 07:02:26 51°12.252 2°48.583 -999 -999 -999 -999
2007-07-03 07:02:31 51°12.244 2°48.557 -999 -999 -999 -999
2007-07-03 07:02:36 51°12.236 2°48.53 -999 -999 -999 -999
2007-07-03 07:02:41 51°12.229 2°48.502 -999 -999 -999 -999
2007-07-03 07:02:46 51°12.222 2°48.474 -999 -999 -999 -999
2007-07-03 07:02:51 51°12.215 2°48.447 -999 -999 -999 -999
2007-07-03 07:02:56 51°12.208 2°48.419 -999 -999 -999 -999
2007-07-03 07:03:01 51°12.202 2°48.391 -999 -999 -999 -999
2007-07-03 07:03:06 51°12.195 2°48.363 -999 -999 -999 -999
2007-07-03 07:03:11 51°12.189 2°48.334 -999 -999 -999 -999
2007-07-03 07:03:16 51°12.182 2°48.306 -999 -999 -999 -999
2007-07-03 07:03:21 51°12.175 2°48.279 -999 -999 -999 -999
2007-07-03 07:03:26 51°12.168 2°48.251 -999 -999 -999 -999
2007-07-03 07:03:31 51°12.161 2°48.223 -999 -999 -999 -999
2007-07-03 07:03:36 51°12.155 2°48.195 -999 -999 -999 -999
2007-07-03 07:03:41 51°12.148 2°48.167 -999 -999 -999 -999
2007-07-03 07:03:46 51°12.141 2°48.139 -999 -999 -999 -999
2007-07-03 07:03:51 51°12.134 2°48.111 -999 -999 -999 -999
2007-07-03 07:03:56 51°12.128 2°48.083 -999 -999 -999 -999
2007-07-03 07:04:01 51°12.121 2°48.054 -999 -999 -999 -999
2007-07-03 07:04:06 51°12.114 2°48.026 -999 -999 -999 -999
2007-07-03 07:04:11 51°12.107 2°47.999 -999 -999 -999 -999
2007-07-03 07:04:16 51°12.1 2°47.971 -999 -999 -999 -999
2007-07-03 07:04:21 51°12.093 2°47.943 -999 -999 -999 -999
2007-07-03 07:04:26 51°12.086 2°47.915 -999 -999 -999 -999
2007-07-03 07:04:31 51°12.079 2°47.887 -999 -999 -999 -999
2007-07-03 07:04:36 51°12.072 2°47.859 -999 -999 -999 -999
2007-07-03 07:04:41 51°12.066 2°47.831 -999 -999 -999 -999
2007-07-03 07:04:46 51°12.059 2°47.803 -999 -999 -999 -999
2007-07-03 07:04:51 51°12.053 2°47.774 -999 -999 -999 -999
2007-07-03 07:04:56 51°12.046 2°47.747 -999 -999 -999 -999
2007-07-03 07:05:01 51°12.039 2°47.719 -999 -999 -999 -999
2007-07-03 07:05:06 51°12.032 2°47.691 -999 -999 -999 -999
2007-07-03 07:05:11 51°12.025 2°47.662 -999 -999 -999 -999
2007-07-03 07:05:16 51°12.018 2°47.634 -999 -999 -999 -999
2007-07-03 07:05:21 51°12.012 2°47.606 -999 -999 -999 -999
2007-07-03 07:05:26 51°12.005 2°47.578 -999 -999 -999 -999
2007-07-03 07:05:31 51°11.998 2°47.55 -999 -999 -999 -999
2007-07-03 07:05:36 51°11.991 2°47.522 -999 -999 -999 -999
2007-07-03 07:05:41 51°11.984 2°47.493 -999 -999 -999 -999
2007-07-03 07:05:46 51°11.978 2°47.465 -999 -999 -999 -999
2007-07-03 07:05:51 51°11.971 2°47.437 -999 -999 -999 -999
2007-07-03 07:05:56 51°11.964 2°47.409 -999 -999 -999 -999
2007-07-03 07:06:01 51°11.957 2°47.381 -999 -999 -999 -999
2007-07-03 07:06:06 51°11.95 2°47.353 -999 -999 -999 -999
2007-07-03 07:06:11 51°11.943 2°47.324 -999 -999 -999 -999
2007-07-03 07:06:16 51°11.937 2°47.296 -999 -999 -999 -999
2007-07-03 07:06:21 51°11.929 2°47.268 -999 -999 -999 -999
2007-07-03 07:06:26 51°11.922 2°47.24 -999 -999 -999 -999
2007-07-03 07:06:31 51°11.916 2°47.211 -999 -999 -999 -999
2007-07-03 07:06:36 51°11.909 2°47.184 -999 -999 -999 -999
2007-07-03 07:06:41 51°11.902 2°47.155 -999 -999 -999 -999
2007-07-03 07:06:46 51°11.895 2°47.127 -999 -999 -999 -999
2007-07-03 07:06:51 51°11.888 2°47.099 -999 -999 -999 -999
2007-07-03 07:06:56 51°11.881 2°47.07 -999 -999 -999 -999
2007-07-03 07:07:01 51°11.874 2°47.042 -999 -999 -999 -999
2007-07-03 07:07:06 51°11.868 2°47.014 -999 -999 -999 -999
2007-07-03 07:07:11 51°11.861 2°46.985 -999 -999 -999 -999
2007-07-03 07:07:16 51°11.854 2°46.957 -999 -999 -999 -999
2007-07-03 07:07:21 51°11.847 2°46.929 -999 -999 -999 -999
2007-07-03 07:07:26 51°11.84 2°46.9 -999 -999 -999 -999
2007-07-03 07:07:31 51°11.834 2°46.872 -999 -999 -999 -999
2007-07-03 07:07:36 51°11.827 2°46.844 -999 -999 -999 -999
2007-07-03 07:07:41 51°11.82 2°46.815 -999 -999 -999 -999
2007-07-03 07:07:46 51°11.812 2°46.787 -999 -999 -999 -999
2007-07-03 07:07:51 51°11.806 2°46.759 -999 -999 -999 -999
2007-07-03 07:07:56 51°11.798 2°46.731 -999 -999 -999 -999
2007-07-03 07:08:01 51°11.792 2°46.702 -999 -999 -999 -999
2007-07-03 07:08:06 51°11.784 2°46.674 -999 -999 -999 -999
2007-07-03 07:08:11 51°11.778 2°46.646 -999 -999 -999 -999
2007-07-03 07:08:16 51°11.771 2°46.617 -999 -999 -999 -999
2007-07-03 07:08:21 51°11.765 2°46.588 -999 -999 -999 -999
2007-07-03 07:08:26 51°11.759 2°46.559 -999 -999 -999 -999
2007-07-03 07:08:31 51°11.753 2°46.53 -999 -999 -999 -999
2007-07-03 07:08:36 51°11.748 2°46.501 -999 -999 -999 -999
2007-07-03 07:08:41 51°11.742 2°46.472 -999 -999 -999 -999
2007-07-03 07:08:46 51°11.737 2°46.443 -999 -999 -999 -999
2007-07-03 07:08:51 51°11.732 2°46.413 -999 -999 -999 -999
2007-07-03 07:08:56 51°11.727 2°46.383 -999 -999 -999 -999
2007-07-03 07:09:01 51°11.721 2°46.355 -999 -999 -999 -999
2007-07-03 07:09:06 51°11.716 2°46.326 -999 -999 -999 -999
2007-07-03 07:09:11 51°11.71 2°46.297 -999 -999 -999 -999
2007-07-03 07:09:16 51°11.705 2°46.268 -999 -999 -999 -999
2007-07-03 07:09:21 51°11.699 2°46.239 -999 -999 -999 -999
2007-07-03 07:09:26 51°11.693 2°46.21 -999 -999 -999 -999
2007-07-03 07:09:31 51°11.688 2°46.181 -999 -999 -999 -999
2007-07-03 07:09:36 51°11.682 2°46.152 -999 -999 -999 -999
2007-07-03 07:09:41 51°11.677 2°46.123 -999 -999 -999 -999
2007-07-03 07:09:46 51°11.671 2°46.094 -999 -999 -999 -999
2007-07-03 07:09:51 51°11.666 2°46.065 -999 -999 -999 -999
2007-07-03 07:09:56 51°11.66 2°46.036 -999 -999 -999 -999
2007-07-03 07:10:01 51°11.655 2°46.007 -999 -999 -999 -999
2007-07-03 07:10:06 51°11.649 2°45.978 -999 -999 -999 -999
2007-07-03 07:10:11 51°11.643 2°45.949 -999 -999 -999 -999
2007-07-03 07:10:16 51°11.638 2°45.92 -999 -999 -999 -999
2007-07-03 07:10:21 51°11.633 2°45.89 -999 -999 -999 -999
2007-07-03 07:10:26 51°11.628 2°45.861 -999 -999 -999 -999
2007-07-03 07:10:31 51°11.623 2°45.832 -999 -999 -999 -999
2007-07-03 07:10:36 51°11.618 2°45.802 -999 -999 -999 -999
2007-07-03 07:10:41 51°11.614 2°45.773 -999 -999 -999 -999
2007-07-03 07:10:46 51°11.609 2°45.744 -999 -999 -999 -999
2007-07-03 07:10:51 51°11.604 2°45.714 -999 -999 -999 -999
2007-07-03 07:10:56 51°11.599 2°45.686 -999 -999 -999 -999
2007-07-03 07:11:01 51°11.594 2°45.656 -999 -999 -999 -999
2007-07-03 07:11:06 51°11.589 2°45.627 -999 -999 -999 -999
2007-07-03 07:11:11 51°11.584 2°45.598 -999 -999 -999 -999
2007-07-03 07:11:16 51°11.579 2°45.569 -999 -999 -999 -999
2007-07-03 07:11:21 51°11.574 2°45.54 -999 -999 -999 -999
2007-07-03 07:11:26 51°11.569 2°45.511 -999 -999 -999 -999
2007-07-03 07:11:31 51°11.564 2°45.482 -999 -999 -999 -999
2007-07-03 07:11:36 51°11.559 2°45.452 -999 -999 -999 -999
2007-07-03 07:11:41 51°11.554 2°45.423 -999 -999 -999 -999
2007-07-03 07:11:46 51°11.549 2°45.394 -999 -999 -999 -999
2007-07-03 07:11:51 51°11.544 2°45.365 -999 -999 -999 -999
2007-07-03 07:11:56 51°11.539 2°45.335 -999 -999 -999 -999
2007-07-03 07:12:01 51°11.534 2°45.306 -999 -999 -999 -999
2007-07-03 07:12:06 51°11.529 2°45.277 -999 -999 -999 -999
2007-07-03 07:12:11 51°11.524 2°45.248 -999 -999 -999 -999
2007-07-03 07:12:16 51°11.519 2°45.219 -999 -999 -999 -999
2007-07-03 07:12:21 51°11.514 2°45.189 -999 -999 -999 -999
2007-07-03 07:12:26 51°11.509 2°45.16 -999 -999 -999 -999
2007-07-03 07:12:31 51°11.504 2°45.131 -999 -999 -999 -999
2007-07-03 07:12:36 51°11.499 2°45.102 -999 -999 -999 -999
2007-07-03 07:12:41 51°11.494 2°45.072 -999 -999 -999 -999
2007-07-03 07:12:46 51°11.488 2°45.043 -999 -999 -999 -999
2007-07-03 07:12:51 51°11.483 2°45.014 -999 -999 -999 -999
2007-07-03 07:12:56 51°11.478 2°44.985 -999 -999 -999 -999
2007-07-03 07:13:01 51°11.473 2°44.955 -999 -999 -999 -999
2007-07-03 07:13:06 51°11.468 2°44.926 -999 -999 -999 -999
2007-07-03 07:13:11 51°11.463 2°44.897 -999 -999 -999 -999
2007-07-03 07:13:16 51°11.458 2°44.867 -999 -999 -999 -999
2007-07-03 07:13:21 51°11.453 2°44.838 -999 -999 -999 -999
2007-07-03 07:13:26 51°11.448 2°44.809 -999 -999 -999 -999
2007-07-03 07:13:31 51°11.443 2°44.78 -999 -999 -999 -999
2007-07-03 07:13:36 51°11.438 2°44.75 -999 -999 -999 -999
2007-07-03 07:13:41 51°11.434 2°44.721 -999 -999 -999 -999
2007-07-03 07:13:46 51°11.429 2°44.692 -999 -999 -999 -999
2007-07-03 07:13:51 51°11.424 2°44.662 -999 -999 -999 -999
2007-07-03 07:13:56 51°11.419 2°44.633 -999 -999 -999 -999
2007-07-03 07:14:01 51°11.414 2°44.604 -999 -999 -999 -999
2007-07-03 07:14:06 51°11.409 2°44.574 -999 -999 -999 -999
2007-07-03 07:14:11 51°11.404 2°44.545 -999 -999 -999 -999
2007-07-03 07:14:16 51°11.399 2°44.516 -999 -999 -999 -999
2007-07-03 07:14:21 51°11.394 2°44.486 -999 -999 -999 -999
2007-07-03 07:14:26 51°11.39 2°44.457 -999 -999 -999 -999
2007-07-03 07:14:31 51°11.385 2°44.428 -999 -999 -999 -999
2007-07-03 07:14:36 51°11.38 2°44.398 -999 -999 -999 -999
2007-07-03 07:14:41 51°11.375 2°44.369 -999 -999 -999 -999
2007-07-03 07:14:46 51°11.37 2°44.34 -999 -999 -999 -999
2007-07-03 07:14:51 51°11.365 2°44.311 -999 -999 -999 -999
2007-07-03 07:14:56 51°11.36 2°44.282 -999 -999 -999 -999
2007-07-03 07:15:01 51°11.355 2°44.253 -999 -999 -999 -999
2007-07-03 07:15:06 51°11.35 2°44.223 -999 -999 -999 -999
2007-07-03 07:15:11 51°11.345 2°44.194 -999 -999 -999 -999
2007-07-03 07:15:16 51°11.34 2°44.165 -999 -999 -999 -999
2007-07-03 07:15:21 51°11.335 2°44.136 -999 -999 -999 -999
2007-07-03 07:15:26 51°11.33 2°44.106 -999 -999 -999 -999
2007-07-03 07:15:31 51°11.325 2°44.077 -999 -999 -999 -999
2007-07-03 07:15:36 51°11.32 2°44.048 -999 -999 -999 -999
2007-07-03 07:15:41 51°11.315 2°44.018 -999 -999 -999 -999
2007-07-03 07:15:46 51°11.31 2°43.989 -999 -999 -999 -999
2007-07-03 07:15:51 51°11.305 2°43.96 -999 -999 -999 -999
2007-07-03 07:15:56 51°11.3 2°43.931 -999 -999 -999 -999
2007-07-03 07:16:01 51°11.295 2°43.901 -999 -999 -999 -999
2007-07-03 07:16:06 51°11.29 2°43.872 -999 -999 -999 -999
2007-07-03 07:16:11 51°11.285 2°43.843 -999 -999 -999 -999
2007-07-03 07:16:16 51°11.28 2°43.813 -999 -999 -999 -999
2007-07-03 07:16:21 51°11.275 2°43.784 -999 -999 -999 -999
2007-07-03 07:16:26 51°11.27 2°43.755 -999 -999 -999 -999
2007-07-03 07:16:31 51°11.265 2°43.725 -999 -999 -999 -999
2007-07-03 07:16:36 51°11.26 2°43.696 -999 -999 -999 -999
2007-07-03 07:16:41 51°11.256 2°43.666 -999 -999 -999 -999
2007-07-03 07:16:46 51°11.251 2°43.637 -999 -999 -999 -999
2007-07-03 07:16:51 51°11.246 2°43.607 -999 -999 -999 -999
2007-07-03 07:16:56 51°11.241 2°43.578 -999 -999 -999 -999
2007-07-03 07:17:01 51°11.235 2°43.548 -999 -999 -999 -999
2007-07-03 07:17:06 51°11.23 2°43.519 -999 -999 -999 -999
2007-07-03 07:17:11 51°11.225 2°43.49 -999 -999 -999 -999
2007-07-03 07:17:16 51°11.22 2°43.46 -999 -999 -999 -999
2007-07-03 07:17:21 51°11.215 2°43.431 -999 -999 -999 -999
2007-07-03 07:17:26 51°11.21 2°43.401 -999 -999 -999 -999
2007-07-03 07:17:31 51°11.205 2°43.372 -999 -999 -999 -999
2007-07-03 07:17:36 51°11.2 2°43.342 -999 -999 -999 -999
2007-07-03 07:17:41 51°11.195 2°43.313 -999 -999 -999 -999
2007-07-03 07:17:46 51°11.19 2°43.283 -999 -999 -999 -999
2007-07-03 07:17:51 51°11.185 2°43.254 -999 -999 -999 -999
2007-07-03 07:17:56 51°11.179 2°43.225 -999 -999 -999 -999
2007-07-03 07:18:01 51°11.174 2°43.195 -999 -999 -999 -999
2007-07-03 07:18:06 51°11.169 2°43.166 -999 -999 -999 -999
2007-07-03 07:18:11 51°11.164 2°43.136 -999 -999 -999 -999
2007-07-03 07:18:16 51°11.16 2°43.106 -999 -999 -999 -999
2007-07-03 07:18:21 51°11.155 2°43.077 -999 -999 -999 -999
2007-07-03 07:18:26 51°11.15 2°43.047 -999 -999 -999 -999
2007-07-03 07:18:31 51°11.145 2°43.018 -999 -999 -999 -999
2007-07-03 07:18:36 51°11.139 2°42.988 -999 -999 -999 -999
2007-07-03 07:18:41 51°11.133 2°42.959 -999 -999 -999 -999
2007-07-03 07:18:46 51°11.128 2°42.93 -999 -999 -999 -999
2007-07-03 07:18:51 51°11.122 2°42.901 -999 -999 -999 -999
2007-07-03 07:18:56 51°11.116 2°42.872 -999 -999 -999 -999
2007-07-03 07:19:01 51°11.11 2°42.843 -999 -999 -999 -999
2007-07-03 07:19:06 51°11.104 2°42.814 -999 -999 -999 -999
2007-07-03 07:19:11 51°11.098 2°42.785 -999 -999 -999 -999
2007-07-03 07:19:16 51°11.093 2°42.756 -999 -999 -999 -999
2007-07-03 07:19:21 51°11.088 2°42.727 -999 -999 -999 -999
2007-07-03 07:19:26 51°11.082 2°42.698 -999 -999 -999 -999
2007-07-03 07:19:31 51°11.078 2°42.668 -999 -999 -999 -999
2007-07-03 07:19:36 51°11.073 2°42.638 -999 -999 -999 -999
2007-07-03 07:19:41 51°11.069 2°42.608 -999 -999 -999 -999
2007-07-03 07:19:46 51°11.065 2°42.58 -999 -999 -999 -999
2007-07-03 07:19:51 51°11.063 2°42.553 -999 -999 -999 -999
2007-07-03 07:19:56 51°11.062 2°42.527 -999 -999 -999 -999
2007-07-03 07:20:01 51°11.064 2°42.502 -999 -999 -999 -999
2007-07-03 07:20:06 51°11.066 2°42.479 -999 -999 -999 -999
2007-07-03 07:20:11 51°11.07 2°42.456 -999 -999 -999 -999
2007-07-03 07:20:16 51°11.073 2°42.435 -999 -999 -999 -999
2007-07-03 07:20:21 51°11.076 2°42.414 -999 -999 -999 -999
2007-07-03 07:20:26 51°11.079 2°42.393 -999 -999 -999 -999
2007-07-03 07:20:31 51°11.081 2°42.375 -999 -999 -999 -999
2007-07-03 07:20:36 51°11.082 2°42.357 -999 -999 -999 -999
2007-07-03 07:20:41 51°11.083 2°42.34 -999 -999 -999 -999
2007-07-03 07:20:46 51°11.083 2°42.324 -999 -999 -999 -999
2007-07-03 07:20:51 51°11.083 2°42.308 -999 -999 -999 -999
2007-07-03 07:20:56 51°11.083 2°42.293 -999 -999 -999 -999
2007-07-03 07:21:01 51°11.083 2°42.279 -999 -999 -999 -999
2007-07-03 07:21:06 51°11.083 2°42.265 -999 -999 -999 -999
2007-07-03 07:21:11 51°11.083 2°42.251 -999 -999 -999 -999
2007-07-03 07:21:16 51°11.082 2°42.239 -999 -999 -999 -999
2007-07-03 07:21:21 51°11.082 2°42.226 -999 -999 -999 -999
2007-07-03 07:21:26 51°11.082 2°42.214 -999 -999 -999 -999
2007-07-03 07:21:31 51°11.082 2°42.203 -999 -999 -999 -999
2007-07-03 07:21:36 51°11.082 2°42.191 -999 -999 -999 -999
2007-07-03 07:21:41 51°11.082 2°42.18 -999 -999 -999 -999
2007-07-03 07:21:46 51°11.082 2°42.17 -999 -999 -999 -999
2007-07-03 07:21:51 51°11.083 2°42.159 -999 -999 -999 -999
2007-07-03 07:21:56 51°11.083 2°42.15 -999 -999 -999 -999
2007-07-03 07:22:01 51°11.084 2°42.14 -999 -999 -999 -999
2007-07-03 07:22:06 51°11.085 2°42.131 -999 -999 -999 -999
2007-07-03 07:22:11 51°11.085 2°42.122 -999 -999 -999 -999
2007-07-03 07:22:16 51°11.086 2°42.114 -999 -999 -999 -999
2007-07-03 07:22:21 51°11.087 2°42.106 -999 -999 -999 -999
2007-07-03 07:22:26 51°11.088 2°42.099 -999 -999 -999 -999
2007-07-03 07:22:31 51°11.088 2°42.094 -999 -999 -999 -999
2007-07-03 07:22:36 51°11.089 2°42.089 -999 -999 -999 -999
2007-07-03 07:22:41 51°11.089 2°42.085 -999 -999 -999 -999
2007-07-03 07:22:46 51°11.09 2°42.082 -999 -999 -999 -999
2007-07-03 07:22:51 51°11.09 2°42.081 -999 -999 -999 -999
2007-07-03 07:22:56 51°11.09 2°42.079 -999 -999 -999 -999
2007-07-03 07:23:01 51°11.09 2°42.079 -999 -999 -999 -999
2007-07-03 07:23:06 51°11.09 2°42.078 -999 -999 -999 -999
2007-07-03 07:23:11 51°11.09 2°42.077 -999 -999 -999 -999
2007-07-03 07:23:16 51°11.089 2°42.076 -999 -999 -999 -999
2007-07-03 07:23:21 51°11.089 2°42.075 -999 -999 -999 -999
2007-07-03 07:23:26 51°11.089 2°42.075 -999 -999 -999 -999
2007-07-03 07:23:32 51°11.089 2°42.073 -999 -999 -999 -999
2007-07-03 07:23:38 51°11.089 2°42.072 -999 -999 -999 -999
2007-07-03 07:23:43 51°11.089 2°42.071 -999 -999 -999 -999
2007-07-03 07:23:49 51°11.089 2°42.07 -999 -999 -999 -999
2007-07-03 07:23:54 51°11.089 2°42.069 -999 -999 -999 -999
2007-07-03 07:24:00 51°11.089 2°42.068 -999 -999 -999 -999
2007-07-03 07:24:05 51°11.089 2°42.066 -999 -999 -999 -999
2007-07-03 07:24:09 51°11.089 2°42.066 -999 -999 -999 -999
2007-07-03 07:24:14 51°11.089 2°42.064 -999 -999 -999 -999
2007-07-03 07:24:20 51°11.089 2°42.063 -999 -999 -999 -999
2007-07-03 07:24:25 51°11.089 2°42.061 -999 -999 -999 -999
2007-07-03 07:24:29 51°11.089 2°42.06 -999 -999 -999 -999
2007-07-03 07:24:34 51°11.089 2°42.059 -999 -999 -999 -999
2007-07-03 07:24:39 51°11.089 2°42.057 -999 -999 -999 -999
2007-07-03 07:24:44 51°11.089 2°42.056 -999 -999 -999 -999
2007-07-03 07:24:49 51°11.089 2°42.055 -999 -999 -999 -999
2007-07-03 07:24:53 51°11.089 2°42.054 -999 -999 -999 -999
2007-07-03 07:24:58 51°11.09 2°42.053 -999 -999 -999 -999
2007-07-03 07:25:02 51°11.09 2°42.051 -999 -999 -999 -999
2007-07-03 07:25:08 51°11.09 2°42.05 -999 -999 -999 -999
2007-07-03 07:25:12 51°11.09 2°42.049 -999 -999 -999 -999
2007-07-03 07:25:17 51°11.091 2°42.048 -999 -999 -999 -999
2007-07-03 07:25:22 51°11.091 2°42.046 -999 -999 -999 -999
2007-07-03 07:25:26 51°11.091 2°42.045 -999 -999 -999 -999
2007-07-03 07:25:31 51°11.091 2°42.044 -999 -999 -999 -999
2007-07-03 07:25:36 51°11.091 2°42.043 -999 -999 -999 -999
2007-07-03 07:25:41 51°11.092 2°42.042 -999 -999 -999 -999
2007-07-03 07:25:46 51°11.092 2°42.04 -999 -999 -999 -999
2007-07-03 07:25:51 51°11.092 2°42.039 -999 -999 -999 -999
2007-07-03 07:25:56 51°11.092 2°42.038 -999 -999 -999 -999
2007-07-03 07:26:01 51°11.092 2°42.036 -999 -999 -999 -999
2007-07-03 07:26:06 51°11.093 2°42.035 -999 -999 -999 -999
2007-07-03 07:26:11 51°11.093 2°42.033 -999 -999 -999 -999
2007-07-03 07:26:16 51°11.093 2°42.032 -999 -999 -999 -999
2007-07-03 07:26:21 51°11.093 2°42.03 -999 -999 -999 -999
2007-07-03 07:26:26 51°11.094 2°42.029 -999 -999 -999 -999
2007-07-03 07:26:31 51°11.094 2°42.028 -999 -999 -999 -999
2007-07-03 07:26:36 51°11.094 2°42.026 -999 -999 -999 -999
2007-07-03 07:26:41 51°11.094 2°42.025 -999 -999 -999 -999
2007-07-03 07:26:46 51°11.095 2°42.024 -999 -999 -999 -999
2007-07-03 07:26:51 51°11.095 2°42.023 -999 -999 -999 -999
2007-07-03 07:26:56 51°11.096 2°42.021 -999 -999 -999 -999
2007-07-03 07:27:01 51°11.096 2°42.02 -999 -999 -999 -999
2007-07-03 07:27:06 51°11.096 2°42.019 -999 -999 -999 -999
2007-07-03 07:27:11 51°11.097 2°42.018 -999 -999 -999 -999
2007-07-03 07:27:16 51°11.097 2°42.016 -999 -999 -999 -999
2007-07-03 07:27:21 51°11.097 2°42.015 -999 -999 -999 -999
2007-07-03 07:27:26 51°11.098 2°42.014 -999 -999 -999 -999
2007-07-03 07:27:31 51°11.098 2°42.012 -999 -999 -999 -999
2007-07-03 07:27:36 51°11.098 2°42.011 -999 -999 -999 -999
2007-07-03 07:27:41 51°11.098 2°42.009 -999 -999 -999 -999
2007-07-03 07:27:46 51°11.099 2°42.008 -999 -999 -999 -999
2007-07-03 07:27:51 51°11.099 2°42.006 -999 -999 -999 -999
2007-07-03 07:27:56 51°11.1 2°42.005 -999 -999 -999 -999
2007-07-03 07:28:01 51°11.1 2°42.003 -999 -999 -999 -999
2007-07-03 07:28:06 51°11.1 2°42.002 -999 -999 -999 -999
2007-07-03 07:28:11 51°11.101 2°42.001 -999 -999 -999 -999
2007-07-03 07:28:16 51°11.101 2°41.999 -999 -999 -999 -999
2007-07-03 07:28:21 51°11.101 2°41.998 -999 -999 -999 -999
2007-07-03 07:28:26 51°11.102 2°41.997 -999 -999 -999 -999
2007-07-03 07:28:31 51°11.102 2°41.995 -999 -999 -999 -999
2007-07-03 07:28:36 51°11.103 2°41.994 -999 -999 -999 -999
2007-07-03 07:28:41 51°11.103 2°41.992 -999 -999 -999 -999
2007-07-03 07:28:46 51°11.103 2°41.991 -999 -999 -999 -999
2007-07-03 07:28:51 51°11.104 2°41.989 -999 -999 -999 -999
2007-07-03 07:28:56 51°11.104 2°41.988 -999 -999 -999 -999
2007-07-03 07:29:01 51°11.104 2°41.986 -999 -999 -999 -999
2007-07-03 07:29:06 51°11.105 2°41.985 -999 -999 -999 -999
2007-07-03 07:29:11 51°11.105 2°41.984 -999 -999 -999 -999
2007-07-03 07:29:16 51°11.106 2°41.982 -999 -999 -999 -999
2007-07-03 07:29:21 51°11.106 2°41.981 -999 -999 -999 -999
2007-07-03 07:29:26 51°11.106 2°41.979 -999 -999 -999 -999
2007-07-03 07:29:31 51°11.107 2°41.977 -999 -999 -999 -999
2007-07-03 07:29:36 51°11.107 2°41.976 -999 -999 -999 -999
2007-07-03 07:29:41 51°11.107 2°41.974 -999 -999 -999 -999
2007-07-03 07:29:46 51°11.108 2°41.973 -999 -999 -999 -999
2007-07-03 07:29:51 51°11.108 2°41.971 -999 -999 -999 -999
2007-07-03 07:29:56 51°11.108 2°41.97 -999 -999 -999 -999
2007-07-03 07:30:01 51°11.109 2°41.968 -999 -999 -999 -999
2007-07-03 07:30:06 51°11.109 2°41.967 -999 -999 -999 -999
2007-07-03 07:30:11 51°11.11 2°41.965 -999 -999 -999 -999
2007-07-03 07:30:16 51°11.11 2°41.964 -999 -999 -999 -999
2007-07-03 07:30:21 51°11.11 2°41.962 -999 -999 -999 -999
2007-07-03 07:30:26 51°11.111 2°41.96 -999 -999 -999 -999
2007-07-03 07:30:31 51°11.112 2°41.958 -999 -999 -999 -999
2007-07-03 07:30:36 51°11.113 2°41.955 -999 -999 -999 -999
2007-07-03 07:30:41 51°11.114 2°41.951 -999 -999 -999 -999
2007-07-03 07:30:46 51°11.116 2°41.947 -999 -999 -999 -999
2007-07-03 07:30:51 51°11.118 2°41.941 -999 -999 -999 -999
2007-07-03 07:30:56 51°11.119 2°41.935 -999 -999 -999 -999
2007-07-03 07:31:01 51°11.121 2°41.927 -999 -999 -999 -999
2007-07-03 07:31:06 51°11.123 2°41.919 -999 -999 -999 -999
2007-07-03 07:31:11 51°11.125 2°41.909 -999 -999 -999 -999
2007-07-03 07:31:16 51°11.126 2°41.898 -999 -999 -999 -999
2007-07-03 07:31:21 51°11.126 2°41.886 -999 -999 -999 -999
2007-07-03 07:31:26 51°11.126 2°41.873 -999 -999 -999 -999
2007-07-03 07:31:31 51°11.126 2°41.858 -999 -999 -999 -999
2007-07-03 07:31:36 51°11.124 2°41.843 -999 -999 -999 -999
2007-07-03 07:31:41 51°11.121 2°41.827 -999 -999 -999 -999
2007-07-03 07:31:46 51°11.118 2°41.81 -999 -999 -999 -999
2007-07-03 07:31:51 51°11.114 2°41.792 -999 -999 -999 -999
2007-07-03 07:31:56 51°11.11 2°41.773 -999 -999 -999 -999
2007-07-03 07:32:01 51°11.106 2°41.753 -999 -999 -999 -999
2007-07-03 07:32:06 51°11.102 2°41.733 -999 -999 -999 -999
2007-07-03 07:32:11 51°11.098 2°41.712 -999 -999 -999 -999
2007-07-03 07:32:16 51°11.094 2°41.69 -999 -999 -999 -999
2007-07-03 07:32:21 51°11.089 2°41.667 -999 -999 -999 -999
2007-07-03 07:32:26 51°11.084 2°41.643 -999 -999 -999 -999
2007-07-03 07:32:31 51°11.079 2°41.619 -999 -999 -999 -999
2007-07-03 07:32:36 51°11.075 2°41.595 -999 -999 -999 -999
2007-07-03 07:32:41 51°11.07 2°41.57 -999 -999 -999 -999
2007-07-03 07:32:46 51°11.064 2°41.545 -999 -999 -999 -999
2007-07-03 07:32:51 51°11.06 2°41.519 -999 -999 -999 -999
2007-07-03 07:32:56 51°11.054 2°41.493 -999 -999 -999 -999
2007-07-03 07:33:01 51°11.049 2°41.466 -999 -999 -999 -999
2007-07-03 07:33:06 51°11.044 2°41.439 -999 -999 -999 -999
2007-07-03 07:33:11 51°11.039 2°41.411 -999 -999 -999 -999
2007-07-03 07:33:16 51°11.034 2°41.384 -999 -999 -999 -999
2007-07-03 07:33:21 51°11.028 2°41.356 -999 -999 -999 -999
2007-07-03 07:33:26 51°11.023 2°41.328 -999 -999 -999 -999
2007-07-03 07:33:31 51°11.018 2°41.299 -999 -999 -999 -999
2007-07-03 07:33:36 51°11.013 2°41.271 -999 -999 -999 -999
2007-07-03 07:33:41 51°11.007 2°41.243 -999 -999 -999 -999
2007-07-03 07:33:46 51°11.002 2°41.214 -999 -999 -999 -999
2007-07-03 07:33:51 51°10.997 2°41.185 -999 -999 -999 -999
2007-07-03 07:33:56 51°10.991 2°41.156 -999 -999 -999 -999
2007-07-03 07:34:01 51°10.985 2°41.127 -999 -999 -999 -999
2007-07-03 07:34:06 51°10.98 2°41.098 -999 -999 -999 -999
2007-07-03 07:34:11 51°10.974 2°41.069 -999 -999 -999 -999
2007-07-03 07:34:16 51°10.969 2°41.04 -999 -999 -999 -999
2007-07-03 07:34:21 51°10.963 2°41.011 -999 -999 -999 -999
2007-07-03 07:34:26 51°10.957 2°40.982 -999 -999 -999 -999
2007-07-03 07:34:31 51°10.952 2°40.953 -999 -999 -999 -999
2007-07-03 07:34:36 51°10.946 2°40.923 -999 -999 -999 -999
2007-07-03 07:34:41 51°10.941 2°40.894 -999 -999 -999 -999
2007-07-03 07:34:46 51°10.935 2°40.865 -999 -999 -999 -999
2007-07-03 07:34:51 51°10.93 2°40.836 -999 -999 -999 -999
2007-07-03 07:34:56 51°10.925 2°40.806 -999 -999 -999 -999
2007-07-03 07:35:01 51°10.919 2°40.777 -999 -999 -999 -999
2007-07-03 07:35:06 51°10.914 2°40.748 -999 -999 -999 -999
2007-07-03 07:35:11 51°10.909 2°40.718 -999 -999 -999 -999
2007-07-03 07:35:16 51°10.903 2°40.689 -999 -999 -999 -999
2007-07-03 07:35:21 51°10.898 2°40.66 -999 -999 -999 -999
2007-07-03 07:35:26 51°10.892 2°40.631 -999 -999 -999 -999
2007-07-03 07:35:31 51°10.886 2°40.601 -999 -999 -999 -999
2007-07-03 07:35:36 51°10.881 2°40.572 -999 -999 -999 -999
2007-07-03 07:35:41 51°10.875 2°40.543 -999 -999 -999 -999
2007-07-03 07:35:46 51°10.87 2°40.514 -999 -999 -999 -999
2007-07-03 07:35:51 51°10.864 2°40.485 -999 -999 -999 -999
2007-07-03 07:35:56 51°10.858 2°40.455 -999 -999 -999 -999
2007-07-03 07:36:01 51°10.853 2°40.426 -999 -999 -999 -999
2007-07-03 07:36:06 51°10.847 2°40.397 -999 -999 -999 -999
2007-07-03 07:36:11 51°10.841 2°40.368 -999 -999 -999 -999
2007-07-03 07:36:16 51°10.836 2°40.338 -999 -999 -999 -999
2007-07-03 07:36:21 51°10.83 2°40.309 -999 -999 -999 -999
2007-07-03 07:36:26 51°10.825 2°40.28 -999 -999 -999 -999
2007-07-03 07:36:31 51°10.819 2°40.25 -999 -999 -999 -999
2007-07-03 07:36:36 51°10.814 2°40.22 -999 -999 -999 -999
2007-07-03 07:36:41 51°10.808 2°40.191 -999 -999 -999 -999
2007-07-03 07:36:46 51°10.803 2°40.162 -999 -999 -999 -999
2007-07-03 07:36:51 51°10.798 2°40.132 -999 -999 -999 -999
2007-07-03 07:36:56 51°10.792 2°40.103 -999 -999 -999 -999
2007-07-03 07:37:01 51°10.787 2°40.073 -999 -999 -999 -999
2007-07-03 07:37:06 51°10.781 2°40.043 -999 -999 -999 -999
2007-07-03 07:37:11 51°10.776 2°40.014 -999 -999 -999 -999
2007-07-03 07:37:16 51°10.77 2°39.984 -999 -999 -999 -999
2007-07-03 07:37:21 51°10.765 2°39.955 -999 -999 -999 -999
2007-07-03 07:37:26 51°10.76 2°39.925 -999 -999 -999 -999
2007-07-03 07:37:31 51°10.755 2°39.896 -999 -999 -999 -999
2007-07-03 07:37:36 51°10.749 2°39.866 -999 -999 -999 -999
2007-07-03 07:37:41 51°10.744 2°39.838 -999 -999 -999 -999
2007-07-03 07:37:46 51°10.739 2°39.808 -999 -999 -999 -999
2007-07-03 07:37:51 51°10.733 2°39.779 -999 -999 -999 -999
2007-07-03 07:37:57 51°10.726 2°39.744 -999 -999 -999 -999
2007-07-03 07:38:01 51°10.722 2°39.72 -999 -999 -999 -999
2007-07-03 07:38:06 51°10.716 2°39.69 -999 -999 -999 -999
2007-07-03 07:38:11 51°10.711 2°39.661 -999 -999 -999 -999
2007-07-03 07:38:16 51°10.706 2°39.632 -999 -999 -999 -999
2007-07-03 07:38:21 51°10.7 2°39.602 -999 -999 -999 -999
2007-07-03 07:38:26 51°10.695 2°39.573 -999 -999 -999 -999
2007-07-03 07:38:31 51°10.689 2°39.543 -999 -999 -999 -999
2007-07-03 07:38:36 51°10.684 2°39.514 -999 -999 -999 -999
2007-07-03 07:38:41 51°10.679 2°39.484 -999 -999 -999 -999
2007-07-03 07:38:46 51°10.673 2°39.455 -999 -999 -999 -999
2007-07-03 07:38:51 51°10.668 2°39.425 -999 -999 -999 -999
2007-07-03 07:38:56 51°10.662 2°39.395 -999 -999 -999 -999
2007-07-03 07:39:01 51°10.657 2°39.366 -999 -999 -999 -999
2007-07-03 07:39:06 51°10.652 2°39.336 -999 -999 -999 -999
2007-07-03 07:39:11 51°10.646 2°39.307 -999 -999 -999 -999
2007-07-03 07:39:16 51°10.641 2°39.277 -999 -999 -999 -999
2007-07-03 07:39:21 51°10.635 2°39.247 -999 -999 -999 -999
2007-07-03 07:39:26 51°10.63 2°39.218 -999 -999 -999 -999
2007-07-03 07:39:31 51°10.624 2°39.188 -999 -999 -999 -999
2007-07-03 07:39:36 51°10.619 2°39.159 -999 -999 -999 -999
2007-07-03 07:39:41 51°10.613 2°39.129 -999 -999 -999 -999
2007-07-03 07:39:46 51°10.608 2°39.1 -999 -999 -999 -999
2007-07-03 07:39:51 51°10.602 2°39.07 -999 -999 -999 -999
2007-07-03 07:39:56 51°10.597 2°39.041 -999 -999 -999 -999
2007-07-03 07:40:01 51°10.591 2°39.011 -999 -999 -999 -999
2007-07-03 07:40:06 51°10.586 2°38.982 -999 -999 -999 -999
2007-07-03 07:40:11 51°10.581 2°38.952 -999 -999 -999 -999
2007-07-03 07:40:17 51°10.574 2°38.917 -999 -999 -999 -999
2007-07-03 07:40:21 51°10.569 2°38.893 -999 -999 -999 -999
2007-07-03 07:40:26 51°10.564 2°38.864 -999 -999 -999 -999
2007-07-03 07:40:31 51°10.558 2°38.834 -999 -999 -999 -999
2007-07-03 07:40:36 51°10.553 2°38.804 -999 -999 -999 -999
2007-07-03 07:40:41 51°10.547 2°38.775 -999 -999 -999 -999
2007-07-03 07:40:46 51°10.542 2°38.746 -999 -999 -999 -999
2007-07-03 07:40:51 51°10.536 2°38.716 -999 -999 -999 -999
2007-07-03 07:40:56 51°10.531 2°38.687 -999 -999 -999 -999
2007-07-03 07:41:01 51°10.526 2°38.657 -999 -999 -999 -999
2007-07-03 07:41:06 51°10.521 2°38.628 -999 -999 -999 -999
2007-07-03 07:41:11 51°10.515 2°38.598 -999 -999 -999 -999
2007-07-03 07:41:16 51°10.51 2°38.569 -999 -999 -999 -999
2007-07-03 07:41:21 51°10.504 2°38.539 -999 -999 -999 -999
2007-07-03 07:41:26 51°10.499 2°38.51 -999 -999 -999 -999
2007-07-03 07:41:31 51°10.494 2°38.48 -999 -999 -999 -999
2007-07-03 07:41:36 51°10.488 2°38.451 -999 -999 -999 -999
2007-07-03 07:41:41 51°10.483 2°38.421 -999 -999 -999 -999
2007-07-03 07:41:46 51°10.477 2°38.392 -999 -999 -999 -999
2007-07-03 07:41:51 51°10.471 2°38.363 -999 -999 -999 -999
2007-07-03 07:41:56 51°10.466 2°38.333 -999 -999 -999 -999
2007-07-03 07:42:01 51°10.46 2°38.303 -999 -999 -999 -999
2007-07-03 07:42:06 51°10.455 2°38.274 -999 -999 -999 -999
2007-07-03 07:42:11 51°10.45 2°38.244 -999 -999 -999 -999
2007-07-03 07:42:16 51°10.444 2°38.215 -999 -999 -999 -999
2007-07-03 07:42:21 51°10.439 2°38.185 -999 -999 -999 -999
2007-07-03 07:42:26 51°10.433 2°38.155 -999 -999 -999 -999
2007-07-03 07:42:31 51°10.428 2°38.126 -999 -999 -999 -999
2007-07-03 07:42:36 51°10.422 2°38.096 -999 -999 -999 -999
2007-07-03 07:42:41 51°10.417 2°38.066 -999 -999 -999 -999
2007-07-03 07:42:46 51°10.411 2°38.037 -999 -999 -999 -999
2007-07-03 07:42:51 51°10.406 2°38.007 -999 -999 -999 -999
2007-07-03 07:42:56 51°10.4 2°37.978 -999 -999 -999 -999
2007-07-03 07:43:01 51°10.395 2°37.948 -999 -999 -999 -999
2007-07-03 07:43:06 51°10.389 2°37.918 -999 -999 -999 -999
2007-07-03 07:43:11 51°10.384 2°37.889 -999 -999 -999 -999
2007-07-03 07:43:16 51°10.379 2°37.859 -999 -999 -999 -999
2007-07-03 07:43:21 51°10.373 2°37.829 -999 -999 -999 -999
2007-07-03 07:43:26 51°10.368 2°37.799 -999 -999 -999 -999
2007-07-03 07:43:31 51°10.362 2°37.77 -999 -999 -999 -999
2007-07-03 07:43:36 51°10.357 2°37.74 -999 -999 -999 -999
2007-07-03 07:43:41 51°10.351 2°37.71 -999 -999 -999 -999
2007-07-03 07:43:46 51°10.346 2°37.68 -999 -999 -999 -999
2007-07-03 07:43:51 51°10.341 2°37.65 -999 -999 -999 -999
2007-07-03 07:43:56 51°10.335 2°37.62 -999 -999 -999 -999
2007-07-03 07:44:01 51°10.329 2°37.591 -999 -999 -999 -999
2007-07-03 07:44:06 51°10.324 2°37.561 -999 -999 -999 -999
2007-07-03 07:44:11 51°10.319 2°37.531 -999 -999 -999 -999
2007-07-03 07:44:16 51°10.313 2°37.501 -999 -999 -999 -999
2007-07-03 07:44:21 51°10.308 2°37.472 -999 -999 -999 -999
2007-07-03 07:44:26 51°10.302 2°37.442 -999 -999 -999 -999
2007-07-03 07:44:31 51°10.297 2°37.412 -999 -999 -999 -999
2007-07-03 07:44:36 51°10.291 2°37.382 -999 -999 -999 -999
2007-07-03 07:44:41 51°10.286 2°37.353 -999 -999 -999 -999
2007-07-03 07:44:46 51°10.28 2°37.323 -999 -999 -999 -999
2007-07-03 07:44:51 51°10.275 2°37.293 -999 -999 -999 -999
2007-07-03 07:44:56 51°10.269 2°37.263 -999 -999 -999 -999
2007-07-03 07:45:01 51°10.264 2°37.234 -999 -999 -999 -999
2007-07-03 07:45:06 51°10.258 2°37.204 -999 -999 -999 -999
2007-07-03 07:45:11 51°10.253 2°37.174 -999 -999 -999 -999
2007-07-03 07:45:16 51°10.247 2°37.144 -999 -999 -999 -999
2007-07-03 07:45:21 51°10.242 2°37.115 -999 -999 -999 -999
2007-07-03 07:45:26 51°10.236 2°37.085 -999 -999 -999 -999
2007-07-03 07:45:31 51°10.231 2°37.055 -999 -999 -999 -999
2007-07-03 07:45:36 51°10.225 2°37.025 -999 -999 -999 -999
2007-07-03 07:45:41 51°10.22 2°36.996 -999 -999 -999 -999
2007-07-03 07:45:46 51°10.215 2°36.966 -999 -999 -999 -999
2007-07-03 07:45:51 51°10.209 2°36.936 -999 -999 -999 -999
2007-07-03 07:45:56 51°10.204 2°36.906 -999 -999 -999 -999
2007-07-03 07:46:01 51°10.198 2°36.876 -999 -999 -999 -999
2007-07-03 07:46:06 51°10.192 2°36.846 -999 -999 -999 -999
2007-07-03 07:46:11 51°10.187 2°36.817 -999 -999 -999 -999
2007-07-03 07:46:16 51°10.181 2°36.787 -999 -999 -999 -999
2007-07-03 07:46:21 51°10.176 2°36.757 -999 -999 -999 -999
2007-07-03 07:46:26 51°10.17 2°36.727 -999 -999 -999 -999
2007-07-03 07:46:31 51°10.165 2°36.697 -999 -999 -999 -999
2007-07-03 07:46:36 51°10.16 2°36.668 -999 -999 -999 -999
2007-07-03 07:46:41 51°10.154 2°36.638 -999 -999 -999 -999
2007-07-03 07:46:46 51°10.148 2°36.608 -999 -999 -999 -999
2007-07-03 07:46:51 51°10.143 2°36.578 -999 -999 -999 -999
2007-07-03 07:46:56 51°10.137 2°36.549 -999 -999 -999 -999
2007-07-03 07:47:01 51°10.132 2°36.519 -999 -999 -999 -999
2007-07-03 07:47:06 51°10.127 2°36.489 -999 -999 -999 -999
2007-07-03 07:47:11 51°10.122 2°36.459 -999 -999 -999 -999
2007-07-03 07:47:16 51°10.118 2°36.428 -999 -999 -999 -999
2007-07-03 07:47:21 51°10.114 2°36.398 -999 -999 -999 -999
2007-07-03 07:47:26 51°10.111 2°36.367 -999 -999 -999 -999
2007-07-03 07:47:31 51°10.109 2°36.336 -999 -999 -999 -999
2007-07-03 07:47:36 51°10.106 2°36.305 -999 -999 -999 -999
2007-07-03 07:47:41 51°10.104 2°36.274 -999 -999 -999 -999
2007-07-03 07:47:46 51°10.102 2°36.244 -999 -999 -999 -999
2007-07-03 07:47:51 51°10.102 2°36.213 -999 -999 -999 -999
2007-07-03 07:47:56 51°10.102 2°36.182 -999 -999 -999 -999
2007-07-03 07:48:01 51°10.103 2°36.151 -999 -999 -999 -999
2007-07-03 07:48:06 51°10.105 2°36.12 -999 -999 -999 -999
2007-07-03 07:48:11 51°10.109 2°36.09 -999 -999 -999 -999
2007-07-03 07:48:16 51°10.113 2°36.061 -999 -999 -999 -999
2007-07-03 07:48:21 51°10.119 2°36.032 -999 -999 -999 -999
2007-07-03 07:48:26 51°10.126 2°36.004 -999 -999 -999 -999
2007-07-03 07:48:31 51°10.133 2°35.976 -999 -999 -999 -999
2007-07-03 07:48:36 51°10.142 2°35.949 -999 -999 -999 -999
2007-07-03 07:48:41 51°10.15 2°35.922 -999 -999 -999 -999
2007-07-03 07:48:46 51°10.161 2°35.898 -999 -999 -999 -999
2007-07-03 07:48:51 51°10.171 2°35.873 -999 -999 -999 -999
2007-07-03 07:48:56 51°10.182 2°35.85 -999 -999 -999 -999
2007-07-03 07:49:01 51°10.195 2°35.829 -999 -999 -999 -999
2007-07-03 07:49:06 51°10.208 2°35.809 -999 -999 -999 -999
2007-07-03 07:49:11 51°10.221 2°35.791 -999 -999 -999 -999
2007-07-03 07:49:16 51°10.236 2°35.775 -999 -999 -999 -999
2007-07-03 07:49:21 51°10.251 2°35.76 -999 -999 -999 -999
2007-07-03 07:49:26 51°10.266 2°35.746 -999 -999 -999 -999
2007-07-03 07:49:31 51°10.282 2°35.734 -999 -999 -999 -999
2007-07-03 07:49:37 51°10.302 2°35.725 -999 -999 -999 -999
2007-07-03 07:49:41 51°10.315 2°35.718 -999 -999 -999 -999
2007-07-03 07:49:46 51°10.332 2°35.712 -999 -999 -999 -999
2007-07-03 07:49:51 51°10.349 2°35.706 -999 -999 -999 -999
2007-07-03 07:49:56 51°10.367 2°35.703 -999 -999 -999 -999
2007-07-03 07:50:01 51°10.384 2°35.702 -999 -999 -999 -999
2007-07-03 07:50:06 51°10.401 2°35.702 -999 -999 -999 -999
2007-07-03 07:50:11 51°10.418 2°35.705 -999 -999 -999 -999
2007-07-03 07:50:16 51°10.435 2°35.709 -999 -999 -999 -999
2007-07-03 07:50:21 51°10.451 2°35.716 -999 -999 -999 -999
2007-07-03 07:50:26 51°10.467 2°35.723 -999 -999 -999 -999
2007-07-03 07:50:31 51°10.483 2°35.732 -999 -999 -999 -999
2007-07-03 07:50:36 51°10.498 2°35.742 -999 -999 -999 -999
2007-07-03 07:50:41 51°10.513 2°35.753 -999 -999 -999 -999
2007-07-03 07:50:46 51°10.528 2°35.765 -999 -999 -999 -999
2007-07-03 07:50:51 51°10.543 2°35.777 -999 -999 -999 -999
2007-07-03 07:50:56 51°10.557 2°35.79 -999 -999 -999 -999
2007-07-03 07:51:01 51°10.572 2°35.803 -999 -999 -999 -999
2007-07-03 07:51:06 51°10.586 2°35.817 -999 -999 -999 -999
2007-07-03 07:51:11 51°10.601 2°35.831 -999 -999 -999 -999
2007-07-03 07:51:16 51°10.615 2°35.845 -999 -999 -999 -999
2007-07-03 07:51:21 51°10.63 2°35.858 -999 -999 -999 -999
2007-07-03 07:51:26 51°10.644 2°35.872 -999 -999 -999 -999
2007-07-03 07:51:31 51°10.658 2°35.886 -999 -999 -999 -999
2007-07-03 07:51:36 51°10.673 2°35.9 -999 -999 -999 -999
2007-07-03 07:51:41 51°10.687 2°35.914 -999 -999 -999 -999
2007-07-03 07:51:46 51°10.701 2°35.928 -999 -999 -999 -999
2007-07-03 07:51:51 51°10.716 2°35.941 -999 -999 -999 -999
2007-07-03 07:51:56 51°10.731 2°35.955 -999 -999 -999 -999
2007-07-03 07:52:01 51°10.745 2°35.969 -999 -999 -999 -999
2007-07-03 07:52:06 51°10.76 2°35.982 -999 -999 -999 -999
2007-07-03 07:52:11 51°10.774 2°35.995 -999 -999 -999 -999
2007-07-03 07:52:16 51°10.789 2°36.008 -999 -999 -999 -999
2007-07-03 07:52:21 51°10.804 2°36.022 -999 -999 -999 -999
2007-07-03 07:52:26 51°10.818 2°36.035 -999 -999 -999 -999
2007-07-03 07:52:31 51°10.833 2°36.049 -999 -999 -999 -999
2007-07-03 07:52:36 51°10.847 2°36.063 -999 -999 -999 -999
2007-07-03 07:52:41 51°10.862 2°36.076 -999 -999 -999 -999
2007-07-03 07:52:46 51°10.876 2°36.091 -999 -999 -999 -999
2007-07-03 07:52:51 51°10.89 2°36.104 -999 -999 -999 -999
2007-07-03 07:52:56 51°10.905 2°36.119 -999 -999 -999 -999
2007-07-03 07:53:01 51°10.919 2°36.131 -999 -999 -999 -999
2007-07-03 07:53:06 51°10.934 2°36.146 -999 -999 -999 -999
2007-07-03 07:53:11 51°10.948 2°36.159 -999 -999 -999 -999
2007-07-03 07:53:16 51°10.963 2°36.172 -999 -999 -999 -999
2007-07-03 07:53:21 51°10.977 2°36.186 -999 -999 -999 -999
2007-07-03 07:53:26 51°10.992 2°36.199 -999 -999 -999 -999
2007-07-03 07:53:31 51°11.006 2°36.213 -999 -999 -999 -999
2007-07-03 07:53:36 51°11.021 2°36.226 -999 -999 -999 -999
2007-07-03 07:53:41 51°11.035 2°36.24 -999 -999 -999 -999
2007-07-03 07:53:46 51°11.05 2°36.254 -999 -999 -999 -999
2007-07-03 07:53:51 51°11.064 2°36.268 -999 -999 -999 -999